Time,TemperatureF,DewpointF,PressureIn,WindDirection,WindDirectionDegrees,WindSpeedMPH,WindSpeedGustMPH,Humidity,HourlyPrecipIn,Conditions,Clouds,dailyrainin,SoftwareType,DateUTC
2013-05-28 00:00:00,74.6,63.8,30.15,SW,218,7.0,18.0,69,0.00,,---,0.00,VWS V14.01,2013-05-28 05:00:00,
2013-05-28 00:01:00,74.6,63.8,30.15,SW,224,5.0,8.0,69,0.00,,---,0.00,VWS V14.01,2013-05-28 05:01:00,
2013-05-28 00:06:00,74.4,64.0,30.15,SSW,192,5.0,17.0,70,0.00,,---,0.00,VWS V14.01,2013-05-28 05:06:00,
2013-05-28 00:10:00,74.4,64.0,30.15,South,181,6.0,17.0,70,0.00,,---,0.00,VWS V14.01,2013-05-28 05:10:00,
2013-05-28 00:11:00,74.4,64.0,30.15,SSW,207,6.0,8.0,70,0.00,,---,0.00,VWS V14.01,2013-05-28 05:11:00,
2013-05-28 00:16:00,74.4,64.0,30.15,SSW,211,10.0,19.0,70,0.00,,---,0.00,VWS V14.01,2013-05-28 05:16:00,
2013-05-28 00:20:00,74.4,63.6,30.15,SW,219,15.0,20.0,69,0.00,,---,0.00,VWS V14.01,2013-05-28 05:20:00,
2013-05-28 00:21:00,74.4,63.6,30.15,SSW,202,5.0,15.0,69,0.00,,---,0.00,VWS V14.01,2013-05-28 05:21:00,
2013-05-28 00:26:00,74.4,63.6,30.15,SW,227,6.0,16.0,69,0.00,,---,0.00,VWS V14.01,2013-05-28 05:26:00,
2013-05-28 00:30:00,74.4,63.6,30.14,South,183,9.0,20.0,69,0.00,,---,0.00,VWS V14.01,2013-05-28 05:30:00,
2013-05-28 00:31:00,74.4,63.6,30.14,SW,219,6.0,10.0,69,0.00,,---,0.00,VWS V14.01,2013-05-28 05:31:00,
2013-05-28 00:36:00,74.4,63.6,30.14,South,182,6.0,16.0,69,0.00,,---,0.00,VWS V14.01,2013-05-28 05:36:00,
2013-05-28 00:40:00,74.4,63.6,30.14,SSW,213,12.0,17.0,69,0.00,,---,0.00,VWS V14.01,2013-05-28 05:40:00,
2013-05-28 00:41:00,74.4,63.6,30.14,SSW,207,10.0,13.0,69,0.00,,---,0.00,VWS V14.01,2013-05-28 05:41:00,
2013-05-28 00:46:00,74.4,63.6,30.12,South,190,9.0,16.0,69,0.00,,---,0.00,VWS V14.01,2013-05-28 05:46:00,
2013-05-28 00:50:00,74.4,63.6,30.12,South,175,6.0,20.0,69,0.00,,---,0.00,VWS V14.01,2013-05-28 05:50:00,
2013-05-28 00:51:00,74.4,63.6,30.12,SSW,196,5.0,7.0,69,0.00,,---,0.00,VWS V14.01,2013-05-28 05:51:00,
2013-05-28 00:56:00,74.4,63.6,30.12,South,173,7.0,20.0,69,0.00,,---,0.00,VWS V14.01,2013-05-28 05:56:00,
2013-05-28 01:00:00,74.2,63.8,30.12,SSW,201,13.0,20.0,70,0.00,,---,0.00,VWS V14.01,2013-05-28 06:00:00,
2013-05-28 01:01:00,74.2,63.8,30.12,South,176,14.0,14.0,70,0.00,,---,0.00,VWS V14.01,2013-05-28 06:01:00,
2013-05-28 01:06:00,74.2,63.8,30.12,South,180,4.0,18.0,70,0.00,,---,0.00,VWS V14.01,2013-05-28 06:06:00,
2013-05-28 01:10:00,74.2,63.8,30.12,South,171,15.0,18.0,70,0.00,,---,0.00,VWS V14.01,2013-05-28 06:10:00,
2013-05-28 01:11:00,74.2,63.8,30.12,South,171,15.0,15.0,70,0.00,,---,0.00,VWS V14.01,2013-05-28 06:11:00,
2013-05-28 01:16:00,74.2,63.8,30.11,South,190,5.0,24.0,70,0.00,,---,0.00,VWS V14.01,2013-05-28 06:16:00,
2013-05-28 01:20:00,74.0,63.6,30.11,South,177,11.0,24.0,70,0.00,,---,0.00,VWS V14.01,2013-05-28 06:20:00,
2013-05-28 01:21:00,74.0,63.6,30.11,SW,217,11.0,13.0,70,0.00,,---,0.00,VWS V14.01,2013-05-28 06:21:00,
2013-05-28 01:26:00,74.0,63.6,30.11,SW,221,7.0,17.0,70,0.00,,---,0.00,VWS V14.01,2013-05-28 06:26:00,
2013-05-28 01:30:00,74.0,63.6,30.11,South,178,12.0,18.0,70,0.00,,---,0.00,VWS V14.01,2013-05-28 06:30:00,
2013-05-28 01:31:00,74.0,63.6,30.11,South,187,10.0,16.0,70,0.00,,---,0.00,VWS V14.01,2013-05-28 06:31:00,
2013-05-28 01:36:00,74.0,63.6,30.11,SSW,200,13.0,17.0,70,0.00,,---,0.00,VWS V14.01,2013-05-28 06:36:00,
2013-05-28 01:40:00,74.0,63.6,30.11,South,182,14.0,17.0,70,0.00,,---,0.00,VWS V14.01,2013-05-28 06:40:00,
2013-05-28 01:41:00,74.0,63.6,30.11,South,186,10.0,14.0,70,0.00,,---,0.00,VWS V14.01,2013-05-28 06:41:00,
2013-05-28 01:46:00,74.0,63.6,30.10,WSW,241,4.0,16.0,70,0.00,,---,0.00,VWS V14.01,2013-05-28 06:46:00,
2013-05-28 01:50:00,73.9,63.5,30.10,SW,214,11.0,16.0,70,0.00,,---,0.00,VWS V14.01,2013-05-28 06:50:00,
2013-05-28 01:51:00,73.9,63.5,30.10,SSW,209,14.0,14.0,70,0.00,,---,0.00,VWS V14.01,2013-05-28 06:51:00,
2013-05-28 01:56:00,73.9,63.5,30.10,South,178,15.0,21.0,70,0.00,,---,0.00,VWS V14.01,2013-05-28 06:56:00,
2013-05-28 02:00:00,73.9,63.5,30.10,SW,217,7.0,21.0,70,0.00,,---,0.00,VWS V14.01,2013-05-28 07:00:00,
2013-05-28 02:01:00,73.9,63.5,30.10,SSW,212,5.0,5.0,70,0.00,,---,0.00,VWS V14.01,2013-05-28 07:01:00,
2013-05-28 02:06:00,73.9,63.5,30.10,SSW,210,5.0,18.0,70,0.00,,---,0.00,VWS V14.01,2013-05-28 07:06:00,
2013-05-28 02:10:00,73.9,63.5,30.10,SSW,203,6.0,18.0,70,0.00,,---,0.00,VWS V14.01,2013-05-28 07:10:00,
2013-05-28 02:11:00,73.9,63.5,30.10,SW,217,10.0,10.0,70,0.00,,---,0.00,VWS V14.01,2013-05-28 07:11:00,
2013-05-28 02:16:00,73.9,63.5,30.11,SW,221,4.0,15.0,70,0.00,,---,0.00,VWS V14.01,2013-05-28 07:16:00,
2013-05-28 02:20:00,73.9,63.5,30.11,SSW,204,8.0,15.0,70,0.00,,---,0.00,VWS V14.01,2013-05-28 07:20:00,
2013-05-28 02:21:00,73.9,63.5,30.11,South,176,6.0,8.0,70,0.00,,---,0.00,VWS V14.01,2013-05-28 07:21:00,
2013-05-28 02:26:00,73.9,63.5,30.11,SSW,207,4.0,11.0,70,0.00,,---,0.00,VWS V14.01,2013-05-28 07:26:00,
2013-05-28 02:30:00,73.9,63.5,30.11,South,190,10.0,16.0,70,0.00,,---,0.00,VWS V14.01,2013-05-28 07:30:00,
2013-05-28 02:31:00,73.9,63.5,30.11,SW,215,4.0,10.0,70,0.00,,---,0.00,VWS V14.01,2013-05-28 07:31:00,
2013-05-28 02:36:00,73.9,63.5,30.11,SW,215,15.0,15.0,70,0.00,,---,0.00,VWS V14.01,2013-05-28 07:36:00,
2013-05-28 02:40:00,73.9,63.5,30.11,South,173,6.0,15.0,70,0.00,,---,0.00,VWS V14.01,2013-05-28 07:40:00,
2013-05-28 02:41:00,73.9,63.5,30.11,SSW,200,6.0,6.0,70,0.00,,---,0.00,VWS V14.01,2013-05-28 07:41:00,
2013-05-28 02:46:00,73.9,63.5,30.10,SW,225,15.0,16.0,70,0.00,,---,0.00,VWS V14.01,2013-05-28 07:46:00,
2013-05-28 02:50:00,74.0,63.6,30.10,South,175,14.0,21.0,70,0.00,,---,0.00,VWS V14.01,2013-05-28 07:50:00,
2013-05-28 02:51:00,74.0,63.6,30.10,SSW,197,15.0,15.0,70,0.00,,---,0.00,VWS V14.01,2013-05-28 07:51:00,
2013-05-28 02:56:00,74.0,63.6,30.10,SSW,208,5.0,15.0,70,0.00,,---,0.00,VWS V14.01,2013-05-28 07:56:00,
2013-05-28 03:00:00,74.0,63.2,30.10,SSW,192,17.0,23.0,69,0.00,,---,0.00,VWS V14.01,2013-05-28 08:00:00,
2013-05-28 03:01:00,74.0,63.2,30.10,SSW,197,7.0,18.0,69,0.00,,---,0.00,VWS V14.01,2013-05-28 08:01:00,
2013-05-28 03:06:00,74.2,63.4,30.10,South,183,14.0,18.0,69,0.00,,---,0.00,VWS V14.01,2013-05-28 08:06:00,
2013-05-28 03:10:00,74.2,63.4,30.10,SSW,202,14.0,19.0,69,0.00,,---,0.00,VWS V14.01,2013-05-28 08:10:00,
2013-05-28 03:11:00,74.2,63.4,30.10,SW,218,16.0,16.0,69,0.00,,---,0.00,VWS V14.01,2013-05-28 08:11:00,
2013-05-28 03:16:00,74.2,63.4,30.10,West,260,6.0,16.0,69,0.00,,---,0.00,VWS V14.01,2013-05-28 08:16:00,
2013-05-28 03:20:00,74.2,63.4,30.10,SSW,201,10.0,16.0,69,0.00,,---,0.00,VWS V14.01,2013-05-28 08:20:00,
2013-05-28 03:21:00,74.2,63.4,30.10,SSW,193,11.0,11.0,69,0.00,,---,0.00,VWS V14.01,2013-05-28 08:21:00,
2013-05-28 03:26:00,74.2,63.4,30.10,WSW,240,5.0,12.0,69,0.00,,---,0.00,VWS V14.01,2013-05-28 08:26:00,
2013-05-28 03:30:00,74.0,63.6,30.10,SW,233,7.0,12.0,70,0.00,,---,0.00,VWS V14.01,2013-05-28 08:30:00,
2013-05-28 03:31:00,74.0,63.6,30.10,SSW,194,6.0,9.0,70,0.00,,---,0.00,VWS V14.01,2013-05-28 08:31:00,
2013-05-28 03:36:00,74.0,63.6,30.10,SW,214,4.0,11.0,70,0.00,,---,0.00,VWS V14.01,2013-05-28 08:36:00,
2013-05-28 03:40:00,74.0,63.6,30.10,SW,215,5.0,12.0,70,0.00,,---,0.00,VWS V14.01,2013-05-28 08:40:00,
2013-05-28 03:41:00,74.0,63.6,30.10,SSW,199,4.0,6.0,70,0.00,,---,0.00,VWS V14.01,2013-05-28 08:41:00,
2013-05-28 03:46:00,74.0,63.6,30.10,SSW,200,10.0,13.0,70,0.00,,---,0.00,VWS V14.01,2013-05-28 08:46:00,
2013-05-28 03:50:00,73.9,63.5,30.10,SSW,208,9.0,13.0,70,0.00,,---,0.00,VWS V14.01,2013-05-28 08:50:00,
2013-05-28 03:51:00,73.9,63.5,30.10,SSW,200,5.0,9.0,70,0.00,,---,0.00,VWS V14.01,2013-05-28 08:51:00,
2013-05-28 03:56:00,73.9,63.9,30.10,SW,216,2.0,11.0,71,0.00,,---,0.00,VWS V14.01,2013-05-28 08:56:00,
2013-05-28 04:00:00,73.9,63.9,30.11,WSW,248,2.0,11.0,71,0.00,,---,0.00,VWS V14.01,2013-05-28 09:00:00,
2013-05-28 04:01:00,73.9,63.9,30.11,WSW,248,2.0,3.0,71,0.00,,---,0.00,VWS V14.01,2013-05-28 09:01:00,
2013-05-28 04:06:00,73.7,63.7,30.11,South,189,10.0,10.0,71,0.00,,---,0.00,VWS V14.01,2013-05-28 09:06:00,
2013-05-28 04:10:00,73.7,63.7,30.11,WSW,240,9.0,14.0,71,0.00,,---,0.00,VWS V14.01,2013-05-28 09:10:00,
2013-05-28 04:11:00,73.7,63.7,30.11,West,279,9.0,9.0,71,0.00,,---,0.00,VWS V14.01,2013-05-28 09:11:00,
2013-05-28 04:16:00,73.7,63.7,30.12,WSW,252,10.0,13.0,71,0.00,,---,0.00,VWS V14.01,2013-05-28 09:16:00,
2013-05-28 04:20:00,73.7,63.7,30.12,West,267,5.0,13.0,71,0.00,,---,0.00,VWS V14.01,2013-05-28 09:20:00,
2013-05-28 04:21:00,73.7,63.7,30.12,West,266,9.0,9.0,71,0.00,,---,0.00,VWS V14.01,2013-05-28 09:21:00,
2013-05-28 04:26:00,73.7,63.7,30.12,SW,229,5.0,16.0,71,0.00,,---,0.00,VWS V14.01,2013-05-28 09:26:00,
2013-05-28 04:30:00,73.7,64.1,30.12,SW,215,9.0,18.0,72,0.00,,---,0.00,VWS V14.01,2013-05-28 09:30:00,
2013-05-28 04:31:00,73.5,63.9,30.12,SW,214,9.0,9.0,72,0.00,,---,0.00,VWS V14.01,2013-05-28 09:31:00,
2013-05-28 04:36:00,73.5,63.9,30.12,SW,221,15.0,18.0,72,0.00,,---,0.00,VWS V14.01,2013-05-28 09:36:00,
2013-05-28 04:40:00,73.5,63.9,30.12,SW,236,14.0,19.0,72,0.00,,---,0.00,VWS V14.01,2013-05-28 09:40:00,
2013-05-28 04:41:00,73.5,63.9,30.12,SW,236,14.0,19.0,72,0.00,,---,0.00,VWS V14.01,2013-05-28 09:41:00,
2013-05-28 04:46:00,73.3,63.7,30.12,SW,233,5.0,16.0,72,0.00,,---,0.00,VWS V14.01,2013-05-28 09:46:00,
2013-05-28 04:50:00,73.3,64.1,30.12,SW,230,6.0,18.0,73,0.00,,---,0.00,VWS V14.01,2013-05-28 09:50:00,
2013-05-28 04:51:00,73.3,64.1,30.12,WSW,244,10.0,10.0,73,0.00,,---,0.00,VWS V14.01,2013-05-28 09:51:00,
2013-05-28 04:56:00,73.3,64.1,30.12,SSW,209,11.0,17.0,73,0.00,,---,0.00,VWS V14.01,2013-05-28 09:56:00,
2013-05-28 05:00:00,73.2,64.0,30.12,South,186,9.0,19.0,73,0.00,,---,0.00,VWS V14.01,2013-05-28 10:00:00,
2013-05-28 05:01:00,73.2,64.0,30.12,SSW,206,3.0,9.0,73,0.00,,---,0.00,VWS V14.01,2013-05-28 10:01:00,
2013-05-28 05:06:00,73.2,64.0,30.12,SSW,211,13.0,18.0,73,0.00,,---,0.00,VWS V14.01,2013-05-28 10:06:00,
2013-05-28 05:10:00,73.2,64.0,30.12,South,190,11.0,22.0,73,0.00,,---,0.00,VWS V14.01,2013-05-28 10:10:00,
2013-05-28 05:11:00,73.2,64.0,30.12,SSW,207,9.0,11.0,73,0.00,,---,0.00,VWS V14.01,2013-05-28 10:11:00,
2013-05-28 05:16:00,73.2,64.0,30.13,SW,221,7.0,19.0,73,0.00,,---,0.00,VWS V14.01,2013-05-28 10:16:00,
2013-05-28 05:20:00,73.2,64.0,30.13,SSW,205,9.0,19.0,73,0.00,,---,0.00,VWS V14.01,2013-05-28 10:20:00,
2013-05-28 05:21:00,73.2,64.0,30.13,SSW,205,9.0,19.0,73,0.00,,---,0.00,VWS V14.01,2013-05-28 10:21:00,
2013-05-28 05:26:00,73.2,64.4,30.13,SSW,209,4.0,15.0,74,0.00,,---,0.00,VWS V14.01,2013-05-28 10:26:00,
2013-05-28 05:30:00,73.2,64.4,30.14,SW,218,6.0,15.0,74,0.00,,---,0.00,VWS V14.01,2013-05-28 10:30:00,
2013-05-28 05:31:00,73.2,64.4,30.14,SW,218,6.0,15.0,74,0.00,,---,0.00,VWS V14.01,2013-05-28 10:31:00,
2013-05-28 05:36:00,73.2,64.4,30.14,SW,217,10.0,18.0,74,0.00,,---,0.00,VWS V14.01,2013-05-28 10:36:00,
2013-05-28 05:40:00,73.2,64.4,30.14,SW,232,5.0,18.0,74,0.00,,---,0.00,VWS V14.01,2013-05-28 10:40:00,
2013-05-28 05:41:00,73.2,64.4,30.14,SW,232,5.0,18.0,74,0.00,,---,0.00,VWS V14.01,2013-05-28 10:41:00,
2013-05-28 05:46:00,73.0,64.6,30.14,SW,225,10.0,15.0,75,0.00,,---,0.00,VWS V14.01,2013-05-28 10:46:00,
2013-05-28 05:50:00,73.0,64.6,30.14,SW,219,10.0,15.0,75,0.00,,---,0.00,VWS V14.01,2013-05-28 10:50:00,
2013-05-28 05:51:00,73.0,64.6,30.14,SW,219,10.0,15.0,75,0.00,,---,0.00,VWS V14.01,2013-05-28 10:51:00,
2013-05-28 05:56:00,73.0,64.6,30.14,WSW,244,9.0,13.0,75,0.00,,---,0.00,VWS V14.01,2013-05-28 10:56:00,
2013-05-28 06:00:00,72.8,64.4,30.14,SW,217,14.0,23.0,75,0.00,,---,0.00,VWS V14.01,2013-05-28 11:00:00,
2013-05-28 06:01:00,72.8,64.4,30.14,SW,224,13.0,23.0,75,0.00,,---,0.00,VWS V14.01,2013-05-28 11:01:00,
2013-05-28 06:06:00,72.8,64.4,30.14,SW,229,14.0,14.0,75,0.00,,---,0.00,VWS V14.01,2013-05-28 11:06:00,
2013-05-28 06:10:00,72.8,64.4,30.14,WSW,242,15.0,15.0,75,0.00,,---,0.00,VWS V14.01,2013-05-28 11:10:00,
2013-05-28 06:11:00,72.8,64.4,30.14,WSW,242,15.0,15.0,75,0.00,,---,0.00,VWS V14.01,2013-05-28 11:11:00,
2013-05-28 06:16:00,72.8,64.8,30.15,WSW,242,11.0,17.0,76,0.00,,---,0.00,VWS V14.01,2013-05-28 11:16:00,
2013-05-28 06:20:00,72.7,63.9,30.15,SW,228,10.0,17.0,74,0.00,,---,0.00,VWS V14.01,2013-05-28 11:20:00,
2013-05-28 06:26:00,72.7,64.7,30.15,SW,214,9.0,19.0,76,0.00,,---,0.00,VWS V14.01,2013-05-28 11:26:00,
2013-05-28 06:30:00,72.7,64.7,30.15,SSW,199,10.0,19.0,76,0.00,,---,0.00,VWS V14.01,2013-05-28 11:30:00,
2013-05-28 06:36:00,72.7,64.7,30.15,SSW,194,6.0,16.0,76,0.00,,---,0.00,VWS V14.01,2013-05-28 11:36:00,
2013-05-28 06:40:00,72.7,64.7,30.15,SSW,201,7.0,16.0,76,0.00,,---,0.00,VWS V14.01,2013-05-28 11:40:00,
2013-05-28 06:41:00,72.7,64.7,30.15,SSW,201,7.0,16.0,76,0.00,,---,0.00,VWS V14.01,2013-05-28 11:41:00,
2013-05-28 06:46:00,72.7,64.7,30.16,SSW,198,4.0,15.0,76,0.00,,---,0.00,VWS V14.01,2013-05-28 11:46:00,
2013-05-28 06:50:00,72.7,64.7,30.16,SW,217,6.0,15.0,76,0.00,,---,0.00,VWS V14.01,2013-05-28 11:50:00,
2013-05-28 06:51:00,72.7,64.7,30.16,SW,217,6.0,15.0,76,0.00,,---,0.00,VWS V14.01,2013-05-28 11:51:00,
2013-05-28 06:56:00,72.5,64.9,30.16,SSW,196,9.0,14.0,77,0.00,,---,0.00,VWS V14.01,2013-05-28 11:56:00,
2013-05-28 07:00:00,72.5,64.9,30.16,SW,218,10.0,15.0,77,0.00,,---,0.00,VWS V14.01,2013-05-28 12:00:00,
2013-05-28 07:01:00,72.5,64.9,30.16,SW,225,11.0,15.0,77,0.00,,---,0.00,VWS V14.01,2013-05-28 12:01:00,
2013-05-28 07:06:00,72.5,64.9,30.16,South,186,5.0,12.0,77,0.00,,---,0.00,VWS V14.01,2013-05-28 12:06:00,
2013-05-28 07:10:00,72.5,64.9,30.16,SW,216,8.0,14.0,77,0.00,,---,0.00,VWS V14.01,2013-05-28 12:10:00,
2013-05-28 07:11:00,72.5,64.9,30.16,SW,216,8.0,14.0,77,0.00,,---,0.00,VWS V14.01,2013-05-28 12:11:00,
2013-05-28 07:16:00,72.5,64.9,30.16,South,190,6.0,10.0,77,0.00,,---,0.00,VWS V14.01,2013-05-28 12:16:00,
2013-05-28 07:20:00,72.5,64.9,30.16,SW,225,7.0,13.0,77,0.00,,---,0.00,VWS V14.01,2013-05-28 12:20:00,
2013-05-28 07:30:00,72.7,65.1,30.16,SW,225,9.0,19.0,77,0.00,,---,0.00,VWS V14.01,2013-05-28 12:30:00,
2013-05-28 07:40:00,72.8,64.8,30.16,SW,225,7.0,18.0,76,0.00,,---,0.00,VWS V14.01,2013-05-28 12:40:00,
2013-05-28 07:50:00,73.0,65.0,30.16,SW,225,7.0,14.0,76,0.00,,---,0.00,VWS V14.01,2013-05-28 12:50:00,
2013-05-28 08:00:00,73.3,64.9,30.16,SW,225,8.0,17.0,75,0.00,,---,0.00,VWS V14.01,2013-05-28 13:00:00,
2013-05-28 08:10:00,73.7,64.9,30.16,SW,225,7.0,14.0,74,0.00,,---,0.00,VWS V14.01,2013-05-28 13:10:00,
2013-05-28 08:20:00,73.9,64.3,30.17,SW,225,11.0,19.0,72,0.00,,---,0.00,VWS V14.01,2013-05-28 13:20:00,
2013-05-28 08:30:00,74.2,64.6,30.18,SW,225,10.0,19.0,72,0.00,,---,0.00,VWS V14.01,2013-05-28 13:30:00,
2013-05-28 08:40:00,75.6,64.7,30.18,SW,225,9.0,18.0,69,0.00,,---,0.00,VWS V14.01,2013-05-28 13:40:00,
2013-05-28 08:50:00,75.8,64.1,30.18,SW,225,9.0,20.0,67,0.00,,---,0.00,VWS V14.01,2013-05-28 13:50:00,
2013-05-28 09:00:00,75.3,62.3,30.18,SW,225,10.0,18.0,64,0.00,,---,0.00,VWS V14.01,2013-05-28 14:00:00,
2013-05-28 09:10:00,75.3,61.8,30.18,SW,225,9.0,18.0,63,0.00,,---,0.00,VWS V14.01,2013-05-28 14:10:00,
2013-05-28 09:20:00,76.1,61.7,30.18,SW,225,10.0,22.0,61,0.00,,---,0.00,VWS V14.01,2013-05-28 14:20:00,
2013-05-28 09:30:00,77.6,61.7,30.18,SW,225,8.0,19.0,58,0.00,,---,0.00,VWS V14.01,2013-05-28 14:30:00,
2013-05-28 09:40:00,77.9,59.9,30.18,SW,225,12.0,23.0,54,0.00,,---,0.00,VWS V14.01,2013-05-28 14:40:00,
2013-05-28 09:50:00,76.8,59.4,30.19,SW,225,13.0,25.0,55,0.00,,---,0.00,VWS V14.01,2013-05-28 14:50:00,
2013-05-28 10:00:00,76.5,59.7,30.19,SW,225,9.0,17.0,56,0.00,,---,0.00,VWS V14.01,2013-05-28 15:00:00,
2013-05-28 10:10:00,76.3,60.9,30.19,SW,225,10.0,19.0,59,0.00,,---,0.00,VWS V14.01,2013-05-28 15:10:00,
2013-05-28 10:20:00,76.1,60.3,30.19,SW,225,10.0,22.0,58,0.00,,---,0.00,VWS V14.01,2013-05-28 15:20:00,
2013-05-28 10:30:00,76.1,60.3,30.19,SSW,202,11.0,20.0,58,0.00,,---,0.00,VWS V14.01,2013-05-28 15:30:00,
2013-05-28 10:40:00,76.1,60.3,30.19,SSW,202,13.0,23.0,58,0.00,,---,0.00,VWS V14.01,2013-05-28 15:40:00,
2013-05-28 10:50:00,76.3,61.9,30.19,SSW,202,7.0,16.0,61,0.00,,---,0.00,VWS V14.01,2013-05-28 15:50:00,
2013-05-28 11:00:00,76.0,61.1,30.19,SW,225,10.0,23.0,60,0.00,,---,0.00,VWS V14.01,2013-05-28 16:00:00,
2013-05-28 11:10:00,75.6,61.2,30.19,SSW,202,11.0,22.0,61,0.00,,---,0.00,VWS V14.01,2013-05-28 16:10:00,
2013-05-28 11:20:00,75.6,61.2,30.19,SW,225,10.0,23.0,61,0.00,,---,0.00,VWS V14.01,2013-05-28 16:20:00,
2013-05-28 11:30:00,76.8,62.3,30.19,SSW,202,6.0,12.0,61,0.00,,---,0.00,VWS V14.01,2013-05-28 16:30:00,
2013-05-28 11:40:00,77.2,62.2,30.19,South,180,9.0,21.0,60,0.00,,---,0.00,VWS V14.01,2013-05-28 16:40:00,
2013-05-28 11:50:00,77.4,63.8,30.19,SSW,202,10.0,18.0,63,0.00,,---,0.00,VWS V14.01,2013-05-28 16:50:00,
2013-05-28 12:00:00,79.2,63.7,30.19,SSW,202,11.0,24.0,59,0.00,,---,0.00,VWS V14.01,2013-05-28 17:00:00,
2013-05-28 12:10:00,79.9,63.3,30.19,SSW,202,12.0,24.0,57,0.00,,---,0.00,VWS V14.01,2013-05-28 17:10:00,
2013-05-28 12:20:00,80.5,62.9,30.19,SW,225,11.0,29.0,55,0.00,,---,0.00,VWS V14.01,2013-05-28 17:20:00,
2013-05-28 12:30:00,80.9,63.2,30.19,SSW,202,11.0,26.0,55,0.00,,---,0.00,VWS V14.01,2013-05-28 17:30:00,
2013-05-28 12:40:00,80.7,63.6,30.19,SSW,202,12.0,23.0,56,0.00,,---,0.00,VWS V14.01,2013-05-28 17:40:00,
2013-05-28 12:50:00,81.6,63.9,30.19,SSW,202,12.0,23.0,55,0.00,,---,0.00,VWS V14.01,2013-05-28 17:50:00,
2013-05-28 13:00:00,81.6,63.4,30.17,SSW,202,13.0,24.0,54,0.00,,---,0.00,VWS V14.01,2013-05-28 18:00:00,
2013-05-28 13:10:00,82.0,63.7,30.17,SW,225,15.0,31.0,54,0.00,,---,0.00,VWS V14.01,2013-05-28 18:10:00,
2013-05-28 13:20:00,82.4,63.0,30.17,SW,225,14.0,26.0,52,0.00,,---,0.00,VWS V14.01,2013-05-28 18:20:00,
2013-05-28 13:30:00,82.6,61.5,30.17,SW,225,13.0,27.0,49,0.00,,---,0.00,VWS V14.01,2013-05-28 18:30:00,
2013-05-28 13:40:00,82.4,62.5,30.17,SW,225,14.0,25.0,51,0.00,,---,0.00,VWS V14.01,2013-05-28 18:40:00,
2013-05-28 13:50:00,83.0,63.0,30.16,SSW,202,14.0,29.0,51,0.00,,---,0.00,VWS V14.01,2013-05-28 18:50:00,
2013-05-28 14:00:00,83.8,63.8,30.17,SW,225,12.0,25.0,51,0.00,,---,0.00,VWS V14.01,2013-05-28 19:00:00,
2013-05-28 14:10:00,83.2,63.2,30.17,SW,225,15.0,30.0,51,0.00,,---,0.00,VWS V14.01,2013-05-28 19:10:00,
2013-05-28 14:20:00,83.4,62.3,30.17,SSW,202,15.0,28.0,49,0.00,,---,0.00,VWS V14.01,2013-05-28 19:20:00,
2013-05-28 14:30:00,83.8,63.2,30.17,SSW,202,15.0,28.0,50,0.00,,---,0.00,VWS V14.01,2013-05-28 19:30:00,
2013-05-28 14:40:00,84.1,63.5,30.17,SSW,202,12.0,27.0,50,0.00,,---,0.00,VWS V14.01,2013-05-28 19:40:00,
2013-05-28 14:50:00,84.1,63.5,30.17,SW,225,13.0,28.0,50,0.00,,---,0.00,VWS V14.01,2013-05-28 19:50:00,
2013-05-28 15:00:00,83.6,63.0,30.17,SSW,202,13.0,28.0,50,0.00,,---,0.00,VWS V14.01,2013-05-28 20:00:00,
2013-05-28 15:10:00,83.6,63.0,30.17,SW,225,13.0,24.0,50,0.00,,---,0.00,VWS V14.01,2013-05-28 20:10:00,
2013-05-28 15:20:00,83.8,63.8,30.17,SSW,202,12.0,27.0,51,0.00,,---,0.00,VWS V14.01,2013-05-28 20:20:00,
2013-05-28 15:30:00,84.0,63.9,30.17,SW,225,12.0,25.0,51,0.00,,---,0.00,VWS V14.01,2013-05-28 20:30:00,
2013-05-28 15:40:00,84.1,63.5,30.17,SW,225,12.0,22.0,50,0.00,,---,0.00,VWS V14.01,2013-05-28 20:40:00,
2013-05-28 15:50:00,84.5,63.8,30.17,SW,225,11.0,25.0,50,0.00,,---,0.00,VWS V14.01,2013-05-28 20:50:00,
2013-05-28 16:00:00,84.3,64.2,30.16,SSW,202,12.0,22.0,51,0.00,,---,0.00,VWS V14.01,2013-05-28 21:00:00,
2013-05-28 16:10:00,83.8,63.8,30.16,SSW,202,14.0,25.0,51,0.00,,---,0.00,VWS V14.01,2013-05-28 21:10:00,
2013-05-28 16:20:00,83.4,64.0,30.15,SSW,202,11.0,22.0,52,0.00,,---,0.00,VWS V14.01,2013-05-28 21:20:00,
2013-05-28 16:30:00,82.6,63.8,30.15,SSW,202,12.0,23.0,53,0.00,,---,0.00,VWS V14.01,2013-05-28 21:30:00,
2013-05-28 16:40:00,81.8,63.5,30.15,South,180,11.0,23.0,54,0.00,,---,0.00,VWS V14.01,2013-05-28 21:40:00,
2013-05-28 16:50:00,81.4,63.7,30.15,South,180,12.0,22.0,55,0.00,,---,0.00,VWS V14.01,2013-05-28 21:50:00,
2013-05-28 17:00:00,81.2,63.0,30.14,South,180,13.0,23.0,54,0.00,,---,0.00,VWS V14.01,2013-05-28 22:00:00,
2013-05-28 17:10:00,81.2,63.5,30.14,SSW,202,9.0,20.0,55,0.00,,---,0.00,VWS V14.01,2013-05-28 22:10:00,
2013-05-28 17:20:00,81.1,63.9,30.14,South,180,11.0,23.0,56,0.00,,---,0.00,VWS V14.01,2013-05-28 22:20:00,
2013-05-28 17:30:00,80.7,63.0,30.14,South,180,12.0,27.0,55,0.00,,---,0.00,VWS V14.01,2013-05-28 22:30:00,
2013-05-28 17:40:00,80.7,63.0,30.14,South,180,13.0,24.0,55,0.00,,---,0.00,VWS V14.01,2013-05-28 22:40:00,
2013-05-28 17:50:00,80.3,62.7,30.14,SSW,202,14.0,29.0,55,0.00,,---,0.00,VWS V14.01,2013-05-28 22:50:00,
2013-05-28 18:00:00,80.1,63.0,30.14,South,180,11.0,21.0,56,0.00,,---,0.00,VWS V14.01,2013-05-28 23:00:00,
2013-05-28 18:10:00,80.1,62.5,30.14,SSW,202,13.0,27.0,55,0.00,,---,0.00,VWS V14.01,2013-05-28 23:10:00,
2013-05-28 18:20:00,80.3,63.2,30.14,South,180,11.0,21.0,56,0.00,,---,0.00,VWS V14.01,2013-05-28 23:20:00,
2013-05-28 18:30:00,79.9,62.8,30.14,South,180,11.0,22.0,56,0.00,,---,0.00,VWS V14.01,2013-05-28 23:30:00,
2013-05-28 18:40:00,79.6,62.5,30.14,South,180,10.0,25.0,56,0.00,,---,0.00,VWS V14.01,2013-05-28 23:40:00,
2013-05-28 18:50:00,79.0,62.5,30.14,South,180,8.0,21.0,57,0.00,,---,0.00,VWS V14.01,2013-05-28 23:50:00,
2013-05-28 19:00:00,78.8,62.3,30.14,South,180,7.0,16.0,57,0.00,,---,0.00,VWS V14.01,2013-05-29 00:00:00,
2013-05-28 19:10:00,78.6,61.6,30.14,South,180,10.0,20.0,56,0.00,,---,0.00,VWS V14.01,2013-05-29 00:10:00,
2013-05-28 19:20:00,78.5,62.0,30.14,South,180,7.0,15.0,57,0.00,,---,0.00,VWS V14.01,2013-05-29 00:20:00,
2013-05-28 19:30:00,78.3,62.3,30.15,South,180,8.0,17.0,58,0.00,,---,0.00,VWS V14.01,2013-05-29 00:30:00,
2013-05-28 19:40:00,78.1,62.1,30.15,South,180,9.0,18.0,58,0.00,,---,0.00,VWS V14.01,2013-05-29 00:40:00,
2013-05-28 19:50:00,78.1,62.1,30.14,South,180,8.0,16.0,58,0.00,,---,0.00,VWS V14.01,2013-05-29 00:50:00,
2013-05-28 20:00:00,77.7,62.2,30.14,South,180,8.0,15.0,59,0.00,,---,0.00,VWS V14.01,2013-05-29 01:00:00,
2013-05-28 20:10:00,77.6,62.2,30.14,South,180,9.0,18.0,59,0.00,,---,0.00,VWS V14.01,2013-05-29 01:10:00,
2013-05-28 20:20:00,77.4,62.0,30.14,South,180,9.0,21.0,59,0.00,,---,0.00,VWS V14.01,2013-05-29 01:20:00,
2013-05-28 20:30:00,77.2,62.2,30.14,South,180,8.0,19.0,60,0.00,,---,0.00,VWS V14.01,2013-05-29 01:30:00,
2013-05-28 20:40:00,76.8,61.9,30.14,South,180,10.0,22.0,60,0.00,,---,0.00,VWS V14.01,2013-05-29 01:40:00,
2013-05-28 20:50:00,76.7,62.2,30.13,South,180,10.0,20.0,61,0.00,,---,0.00,VWS V14.01,2013-05-29 01:50:00,
2013-05-28 21:00:00,76.5,62.1,30.12,South,180,11.0,22.0,61,0.00,,---,0.00,VWS V14.01,2013-05-29 02:00:00,
2013-05-28 21:10:00,76.3,61.9,30.12,South,180,12.0,24.0,61,0.00,,---,0.00,VWS V14.01,2013-05-29 02:10:00,
2013-05-28 21:20:00,76.1,61.7,30.14,SSW,202,9.0,23.0,61,0.00,,---,0.00,VWS V14.01,2013-05-29 02:20:00,
2013-05-28 21:30:00,77.2,62.2,30.14,South,180,8.0,19.0,60,0.00,,---,0.00,VWS V14.01,2013-05-29 02:30:00,
2013-05-28 21:36:00,75.8,61.9,30.14,SW,215,15.0,15.0,62,0.00,,---,0.00,VWS V14.01,2013-05-29 02:36:00,
2013-05-28 21:40:00,75.8,61.9,30.14,South,173,6.0,18.0,62,0.00,,---,0.00,VWS V14.01,2013-05-29 02:40:00,
2013-05-28 21:41:00,75.8,61.9,30.14,SSW,192,15.0,20.0,62,0.00,,---,0.00,VWS V14.01,2013-05-29 02:41:00,
2013-05-28 21:46:00,75.8,61.9,30.15,SSW,200,14.0,20.0,62,0.00,,---,0.00,VWS V14.01,2013-05-29 02:46:00,
2013-05-28 21:50:00,75.6,61.7,30.15,South,190,6.0,20.0,62,0.00,,---,0.00,VWS V14.01,2013-05-29 02:50:00,
2013-05-28 21:51:00,75.6,61.7,30.15,SSW,197,2.0,7.0,62,0.00,,---,0.00,VWS V14.01,2013-05-29 02:51:00,
2013-05-28 21:56:00,75.6,61.7,30.15,SSW,210,6.0,13.0,62,0.00,,---,0.00,VWS V14.01,2013-05-29 02:56:00,
2013-05-28 22:00:00,75.6,62.1,30.16,SW,231,7.0,13.0,63,0.00,,---,0.00,VWS V14.01,2013-05-29 03:00:00,
2013-05-28 22:01:00,75.6,62.1,30.16,SW,231,7.0,7.0,63,0.00,,---,0.00,VWS V14.01,2013-05-29 03:01:00,
2013-05-28 22:06:00,75.4,61.9,30.16,SW,215,6.0,12.0,63,0.00,,---,0.00,VWS V14.01,2013-05-29 03:06:00,
2013-05-28 22:10:00,75.4,62.4,30.16,SW,227,2.0,16.0,64,0.00,,---,0.00,VWS V14.01,2013-05-29 03:10:00,
2013-05-28 22:11:00,75.4,62.4,30.16,SW,223,3.0,5.0,64,0.00,,---,0.00,VWS V14.01,2013-05-29 03:11:00,
2013-05-28 22:16:00,75.4,62.4,30.18,South,188,15.0,15.0,64,0.00,,---,0.00,VWS V14.01,2013-05-29 03:16:00,
2013-05-28 22:20:00,75.3,62.3,30.18,SSW,205,5.0,16.0,64,0.00,,---,0.00,VWS V14.01,2013-05-29 03:20:00,
2013-05-28 22:21:00,75.3,62.3,30.18,SW,222,10.0,10.0,64,0.00,,---,0.00,VWS V14.01,2013-05-29 03:21:00,
2013-05-28 22:26:00,75.3,62.3,30.18,SSW,212,7.0,14.0,64,0.00,,---,0.00,VWS V14.01,2013-05-29 03:26:00,
2013-05-28 22:30:00,75.1,62.5,30.18,SSE,165,7.0,14.0,65,0.00,,---,0.00,VWS V14.01,2013-05-29 03:30:00,
2013-05-28 22:31:00,75.1,62.5,30.18,South,189,3.0,7.0,65,0.00,,---,0.00,VWS V14.01,2013-05-29 03:31:00,
2013-05-28 22:36:00,75.1,62.5,30.18,SSW,213,6.0,13.0,65,0.00,,---,0.00,VWS V14.01,2013-05-29 03:36:00,
2013-05-28 22:40:00,75.1,62.5,30.18,SW,217,6.0,16.0,65,0.00,,---,0.00,VWS V14.01,2013-05-29 03:40:00,
2013-05-28 22:41:00,75.1,62.5,30.18,SSW,212,7.0,11.0,65,0.00,,---,0.00,VWS V14.01,2013-05-29 03:41:00,
2013-05-28 22:46:00,75.1,63.0,30.20,SSW,196,6.0,11.0,66,0.00,,---,0.00,VWS V14.01,2013-05-29 03:46:00,
2013-05-28 22:50:00,75.1,63.0,30.20,SSW,196,5.0,11.0,66,0.00,,---,0.00,VWS V14.01,2013-05-29 03:50:00,
2013-05-28 22:51:00,75.1,63.0,30.20,SSW,196,5.0,5.0,66,0.00,,---,0.00,VWS V14.01,2013-05-29 03:51:00,
2013-05-28 22:56:00,74.9,62.8,30.20,SW,220,11.0,11.0,66,0.00,,---,0.00,VWS V14.01,2013-05-29 03:56:00,
2013-05-28 23:00:00,74.9,62.8,30.20,SSW,201,7.0,11.0,66,0.00,,---,0.00,VWS V14.01,2013-05-29 04:00:00,
2013-05-28 23:01:00,74.9,62.8,30.20,South,188,6.0,7.0,66,0.00,,---,0.00,VWS V14.01,2013-05-29 04:01:00,
2013-05-28 23:06:00,74.9,62.8,30.20,SSW,196,3.0,9.0,66,0.00,,---,0.00,VWS V14.01,2013-05-29 04:06:00,
2013-05-28 23:10:00,74.9,62.8,30.20,South,184,6.0,9.0,66,0.00,,---,0.00,VWS V14.01,2013-05-29 04:10:00,
2013-05-28 23:11:00,74.9,62.8,30.20,South,184,6.0,6.0,66,0.00,,---,0.00,VWS V14.01,2013-05-29 04:11:00,
2013-05-28 23:16:00,74.7,63.0,30.20,South,186,8.0,10.0,67,0.00,,---,0.00,VWS V14.01,2013-05-29 04:16:00,
2013-05-28 23:20:00,74.7,63.0,30.20,SW,236,3.0,11.0,67,0.00,,---,0.00,VWS V14.01,2013-05-29 04:20:00,
2013-05-28 23:21:00,74.7,63.0,30.20,SSW,204,4.0,6.0,67,0.00,,---,0.00,VWS V14.01,2013-05-29 04:21:00,
2013-05-28 23:26:00,74.7,63.0,30.20,SSE,164,11.0,15.0,67,0.00,,---,0.00,VWS V14.01,2013-05-29 04:26:00,
2013-05-28 23:30:00,74.7,63.0,30.19,SW,234,12.0,16.0,67,0.00,,---,0.00,VWS V14.01,2013-05-29 04:30:00,
2013-05-28 23:31:00,74.7,63.0,30.19,SE,142,5.0,13.0,67,0.00,,---,0.00,VWS V14.01,2013-05-29 04:31:00,
2013-05-28 23:36:00,74.7,63.0,30.19,SSW,194,6.0,13.0,67,0.00,,---,0.00,VWS V14.01,2013-05-29 04:36:00,
2013-05-28 23:40:00,74.6,63.3,30.19,SW,224,7.0,16.0,68,0.00,,---,0.00,VWS V14.01,2013-05-29 04:40:00,
2013-05-28 23:41:00,74.6,63.3,30.19,South,175,8.0,8.0,68,0.00,,---,0.00,VWS V14.01,2013-05-29 04:41:00,
2013-05-28 23:46:00,74.6,63.3,30.19,SSW,210,6.0,10.0,68,0.00,,---,0.00,VWS V14.01,2013-05-29 04:46:00,
2013-05-28 23:50:00,74.6,63.3,30.19,SSW,196,5.0,12.0,68,0.00,,---,0.00,VWS V14.01,2013-05-29 04:50:00,
2013-05-28 23:51:00,74.6,63.3,30.19,SSW,203,6.0,11.0,68,0.00,,---,0.00,VWS V14.01,2013-05-29 04:51:00,
2013-05-28 23:56:00,74.6,63.3,30.19,South,188,5.0,15.0,68,0.00,,---,0.00,VWS V14.01,2013-05-29 04:56:00,